This is the latest recevied weather packets stored in our database for station/object WA7CUG. If no packets are shown the sender has not sent any weather packets the latest 10 day(s).
| Time | Temp. | Humidity | Pressure | Rain* | Wind** | Luminosity | Snow |
|---|---|---|---|---|---|---|---|
| 1777596872 | 25.56° C | 30% | 1017.9 hPa | 0 mm | - | 184 W/m² | - |
| 1777596568 | 25.56° C | 30% | 1018 hPa | 0 mm | - | 171 W/m² | - |
| 1777596266 | 25° C | 27% | 1018 hPa | 0 mm | - | 243 W/m² | - |
| 1777595962 | 25° C | 28% | 1017.9 hPa | 0 mm | - | 279 W/m² | - |
| 1777595657 | 26.11° C | 27% | 1017.9 hPa | 0 mm | - | 282 W/m² | - |
| 1777595353 | 26.67° C | 29% | 1018.1 hPa | 0 mm | - | 299 W/m² | - |
| 1777595050 | 26.11° C | 29% | 1018 hPa | 0 mm | - | 331 W/m² | - |
| 1777594746 | 26.67° C | 26% | 1018.1 hPa | 0 mm | - | 325 W/m² | - |
| 1777594443 | 25.56° C | 30% | 1018.1 hPa | 0 mm | - | 359 W/m² | - |
| 1777594138 | 25° C | 29% | 1018.2 hPa | 0 mm | - | 372 W/m² | - |
| 1777593834 | 25° C | 28% | 1018.2 hPa | 0 mm | - | 380 W/m² | - |
| 1777593531 | 25.56° C | 27% | 1018.2 hPa | 0 mm | - | 382 W/m² | - |
| 1777593225 | 25° C | 25% | 1018.4 hPa | 0 mm | - | 404 W/m² | - |
| 1777592925 | 24.44° C | 25% | 1018.2 hPa | 0 mm | - | 425 W/m² | - |
| 1777592620 | 25° C | 26% | 1018.4 hPa | 0 mm | - | 430 W/m² | - |
| 1777592316 | 25° C | 26% | 1018.4 hPa | 0 mm | - | 444 W/m² | - |
| 1777592012 | 25° C | 27% | 1018.5 hPa | 0 mm | - | 456 W/m² | - |
| 1777591709 | 25° C | 29% | 1018.6 hPa | 0 mm | - | 486 W/m² | - |
| 1777591404 | 25° C | 26% | 1018.8 hPa | 0 mm | - | 440 W/m² | - |
| 1777591101 | 25° C | 28% | 1018.6 hPa | 0 mm | - | 493 W/m² | - |
| 1777590796 | 25° C | 28% | 1019 hPa | 0 mm | - | 503 W/m² | - |
| 1777590493 | 25° C | 25% | 1019 hPa | 0 mm | - | 518 W/m² | - |
| 1777590189 | 25° C | 25% | 1019 hPa | 0 mm | - | 521 W/m² | - |
| 1777589885 | 25° C | 25% | 1019.1 hPa | 0 mm | - | 542 W/m² | - |
| 1777589576 | 25.56° C | 26% | 1019.3 hPa | 0 mm | - | 546 W/m² | - |
* Rain latest hour (hover to see other rain measurements)
** Current wind speed in m/s (hover to see current wind gust speed)